Regional Weather Roundup
Issued by NWS Albany, NY

Home | Current Version | Previous Version | Text Only | Print | Product List | Glossary On
Versions: 1 2 3 4 5 6 7 8 9 10 11 12 13 14 15 16 17 18 19 20 21 22 23 24 25 26 27 28
000
ASUS41 KALY 262210
RWRALY

NEW YORK STATE HOURLY WEATHER ROUNDUP
NATIONAL WEATHER SERVICE ALBANY NY
600 PM EDT MON JUN 26 2017

NOTE: "FAIR" INDICATES FEW OR NO CLOUDS BELOW 12,000 FEET WITH NO
SIGNIFICANT WEATHER AND/OR NO OBSTRUCTIONS TO VISIBILITY.

NYZ032-033-038>043-046>054-057>066-NYZ062>081-082-084-262300-
EAST


CITY           SKY/WX    TMP DP  RH WIND       PRES   REMARKS
ALBANY         TSTM      63  56  78 NW12G30   29.98R
GLENS FALLS    CLOUDY    61  56  83 SE6       29.97R
POUGHKEEPSIE   SUNNY     77  47  34 SW8G17    29.94F
NEWBURGH       MOSUNNY   75  52  43 W14       29.97F
MONTGOMERY     SUNNY     76  47  35 SW13      29.95F
WHITE PLAINS   MOSUNNY   73  50  44 S8        29.98S
ISLIP          MOSUNNY   75  52  44 SW16      29.99S
NEW YORK CITY  MOSUNNY   76  51  41 S14G22    29.98S
CENTRAL PARK   CLOUDY    75  52  44 VRB3      30.00F
$$

NYZ005>009-017-018-044>046-055-056-262300-
CENTRAL


CITY           SKY/WX    TMP DP  RH WIND       PRES   REMARKS
FULTON         CLOUDY    66  60  81 CALM      29.94F
SYRACUSE       PTSUNNY   69  56  62 SW5         N/A
ROME           PTSUNNY   68  54  60 W7        29.96F
ELMIRA         PTSUNNY   62  55  77 E8        29.96S
BINGHAMTON     CLOUDY    61  50  67 N16       29.97S
MONTICELLO     SUNNY     72  46  40 W7        30.00S
$$

NYZ026>034-041>043-087-262300-
NORTH


CITY           SKY/WX    TMP DP  RH WIND       PRES   REMARKS
WATERTOWN      SUNNY     67  54  63 W7        29.92F
FORT DRUM      NOT AVBL
OGDENSBURG     FAIR      71  52  51 CALM      29.93S
MASSENA        CLOUDY    68  52  56 S6        29.93F
SARANAC LAKE   MOSUNNY   61  54  77 SW5       29.96S
PLATTSBURGH    PTSUNNY   68  52  56 S3        29.92F
$$

NYZ001>004-010>016-019>021-085-262300-
WEST


CITY           SKY/WX    TMP DP  RH WIND       PRES   REMARKS
NIAGARA FALLS  TSTM      63  50  62 W5        29.94F
BUFFALO        MOSUNNY   67  52  58 SW18G30   29.95S
DUNKIRK        SUNNY     66  52  60 SW20G28   29.97F
JAMESTOWN      CLOUDY    64  45  48 W13       30.00F
WELLSVILLE     CLOUDY    56  52  86 SW3       30.02F
ROCHESTER      TSTM      59  52  77 SW14G30   29.96R
PENN YAN       CLOUDY    64  51  62 SW8       29.97F
$$

             KEY
       WCI = WIND CHILL INDEX
       VSB = VISIBILITY
       HX  = HEAT INDEX
$$




USA.gov is the U.S. government's official web portal to all federal, state and local government web resources and services.